カタログに戻る

STARLINK-36770

運用中通信VLEO
NORAD 67870·PAYLOAD·🇺🇸 United States

打ち上げ Feb 20, 2026 から Vandenberg Space Force Base

Loading…

次のパス (今後24時間)

TLE

最新Source: CelesTrak SupGP

元期: Sep 14, 2026, 21:13 UTC

1 67870C 26034W   26257.88451389  .00027551  00000+0  81439-3 0  2575
2 67870  53.1597  43.9643 0001178  80.4766 267.5579 15.34362384    18

AllMySatでSTARLINK-36770をリアルタイム追跡

Download on the App Store